sat.trackr.live / text

‹ back to catalog

STARLINK-11689 [DTC]

NORAD 64241 · 2025-119J

PAYLOAD ACTIVE UNKNOWN

§ Identity

Operator
Country
US
Launch date
2025-06-03
Launch site
AFETR
Launch vehicle
Mass (kg)
RCS (m²)

Purposes: comms

External: N2YO · Heavens-Above · Gunter

§ Orbital elements

Epoch: 2026-05-25T04:08:25.645056Z

Period
91.67 min
Inclination
43.0002°
Eccentricity
0.0001114
Mean motion
15.70893947 rev/d
Perigee alt
355.6 km
Apogee alt
357.1 km
Semi-major
6,734.5 km
B*
1.8221e-3
RAAN
108.0830°
Arg perigee
208.0189°
Mean anomaly
152.0619°
Rev number
5,727

§ Raw data

STARLINK-11689 [DTC]1 64241U 25119J   26145.17251904  .00240800  00000+0  18221-2 0  99912 64241  43.0002 108.0830 0001114 208.0189 152.0619 15.70893947 57271

JSON: /api/v1/satellites/64241 · /tle

For live sub-satellite position, see the globe view (requires WebGL).

§ Visibility from observer

Set your observer location to see the next 7 days of passes ≥ 10°. The values pass through the URL so the page stays shareable.

No JS? Fill the form by hand. The geolocation button needs JavaScript.